sat.trackr.live / text

‹ back to catalog

LEMUR-2-CELIJO-SB-PK

NORAD 66781 · 2025-276DW

PAYLOAD ACTIVE UNKNOWN

§ Identity

Operator
Country
US
Launch date
2025-11-28
Launch site
AFWTR
Launch vehicle
Mass (kg)
RCS (m²)

Purposes: earth_obs

External: N2YO · Heavens-Above · Gunter

§ Orbital elements

Epoch: 2026-05-25T03:40:02.081568Z

Period
96.02 min
Inclination
97.5276°
Eccentricity
0.0008046
Mean motion
14.99625607 rev/d
Perigee alt
562.5 km
Apogee alt
573.6 km
Semi-major
6,946.2 km
B*
5.9517e-4
RAAN
216.6839°
Arg perigee
193.7376°
Mean anomaly
166.3630°
Rev number
1,917

§ Raw data

LEMUR-2-CELIJO-SB-PK1 66781U 25276DW  26145.15280187  .00007280  00000+0  59517-3 0  99962 66781  97.5276 216.6839 0008046 193.7376 166.3630 14.99625607 19177

JSON: /api/v1/satellites/66781 · /tle

For live sub-satellite position, see the globe view (requires WebGL).

§ Visibility from observer

Set your observer location to see the next 7 days of passes ≥ 10°. The values pass through the URL so the page stays shareable.

No JS? Fill the form by hand. The geolocation button needs JavaScript.